Погода в Крайстчерче

Новая Зеландия     43°31′06″S   172°38′17″E
темп.,
°C
ветер,
м/с
пор.,
м/с
влажн.,
%
обл.,
%
осадки,
мм/ч
давл.,
гПа
погр.,
м
23 сентября, чт
чт2300:00+10в4693100 0.0 1007251
03:00+10юв349557 0.0 1004199
06:00+10в1194100 0.0 100322
09:00+10в2289100 0.0 1002242
12:00+11всв2286100 0.1 999252
15:00+11юв228835 0.1 995163
18:00+11вюв1291100 0.1 99486
21:00+10з32905 0.0 99232
24 сентября, пт
пт2400:00+10з11925 0.0 99111
03:00+10з44885 0.0 99164
06:00+10юз57730 0.0 995102
09:00+13зюз24640 0.0 1000184
12:00+12в99780 0.0 1003350
15:00+11в810690 0.0 1005630
18:00+11в8127613 0.0 1007705
21:00+10всв45790 0.0 1007133
25 сентября, сб
сб2500:00+9с410630 0.0 1005191
03:00+11с915640 0.0 1003254
06:00+14ссз1016540 0.0 1001668
09:00+15ссз411620 0.0 1000621
12:00+16ссз513585 0.0 995561
15:00+16сз1221610 0.0 994906
18:00+13зсз916650 0.0 996718
21:00+13зсз511530 0.0 999459
26 сентября, вс
вс2600:00+11з511520 0.0 1001318
04:00+9зюз24570 0.0 1002125
07:00+8ююз22600 0.0 100573
10:00+9всв336614 0.6 1009453
13:00+9ююв4370100 2.9 1011736
16:00+9юв3565100 1.3 1012907
19:00+6юв1487100 4.6 1016768
22:00+6юз4478100 0.6 1018491
27 сентября, пн
пн2701:00+5зюз4590100 0.6 1019303
04:00+4юз458888 0.0 1020227
07:00+4юз338714 0.0 1021131
10:00+7з117612 0.0 1021263
13:00+8всв23648 0.1 1020700
16:00+9всв45625 0.0 1018932
19:00+9всв566611 0.0 1018833
22:00+8св56685 0.0 1018725